Content
SEND FEEDBACK

Daily
Averages
Monthly
Summary
Mexico

COZUMEL, QUINTANA ROO


Home > North America > Mexico > Quintana Roo
Elevation: 15 feet     Latitude: 20 31N     Longitude: 086 56W

WEATHER
 
SELECT A DAY
Number of Records: 127,458;   Date Range: 1/1/95 - 10/30/14
 
SHARE

PRINT THIS DATA

[ ← Previous Day ]
WEATHER ALMANAC - JANUARY 26, 2014
[ Next Day → ]
[ °C ]   °F
Weather ElementAverageHighLow
Temperature66.5 °F75.2 °F (3:45 pm)57.2 °F (5:44 am)
Dewpoint63.7 °F68 °F (1:41 pm)57.2 °F (5:44 am)
Humidity91.2 %100 % (2:43 am)73 % (3:45 pm)
Barometer30.02 in30.10 in (8:41 am)29.95 in (3:45 pm)
Wind Speed2.6 mph9.2 mph (1:41 pm)
Weather ElementAverage
Visibility7.5 mi
Wind DirectionESE (121.7 °)

Weather ElementTotal
Precipitation---
Cooling Degree Days1.2 (Base 65)
Growing Degree Days16.2 (Base 50)
Averaged from 23 records on January 26, 2014
WEATHER CONDITIONS BREAKOUT
WIND DIRECTION BREAKOUT
WEATHER BY HOUR - JANUARY 26, 2014
[ °C ]   °F
Local TimeTemperatureDewpointHumidityBarometerVisibilityWind DirectionWind SpeedGust SpeedPrecipitationEventsConditions
1:48 AM60.8 °F59.0 °F94 %30.05 in7.0 miCalmPartly Cloudy
2:43 AM62.6 °F62.6 °F100 %30.07 in7.0 miNorth (360°)4.6 mphClear
3:42 AM64.4 °F62.6 °F94 %30.04 in7.0 miCalmClear
4:47 AM64.4 °F62.6 °F94 %30.04 in7.0 miNNE (20°)3.5 mphClear
5:44 AM57.2 °F57.2 °F100 %30.04 in7.0 miCalmClear
6:42 AM57.2 °F57.2 °F100 %30.05 in8.0 miCalmClear
7:40 AM60.8 °F60.8 °F100 %30.06 in8.0 miCalmClear
8:41 AM69.8 °F66.2 °F88 %30.10 in8.0 miNorth (350°)4.6 mphClear
9:43 AM71.6 °F66.2 °F83 %30.08 in8.0 miNNW (330°)4.6 mphPartly Cloudy
10:42 AM71.6 °F66.2 °F83 %30.07 in8.0 miNNW (330°)6.9 mphScattered Clouds
11:40 AM73.4 °F66.2 °F78 %30.02 in8.0 miNNW (340°)6.9 mphScattered Clouds
12:40 PM73.4 °F66.2 °F78 %30.01 in8.0 miNorth (350°)5.8 mphScattered Clouds
1:41 PM73.4 °F68.0 °F83 %29.97 in8.0 miNorth (350°)9.2 mphScattered Clouds
2:46 PM73.4 °F68.0 °F83 %29.99 in8.0 miEast (80°)5.8 mphScattered Clouds
3:45 PM75.2 °F66.2 °F73 %29.95 in8.0 miSSE (160°)3.5 mphScattered Clouds
4:53 PM73.4 °F66.2 °F78 %29.96 in8.0 miCalmMostly Cloudy
5:48 PM69.8 °F66.2 °F88 %29.95 in8.0 miCalmPartly Cloudy
6:46 PM66.2 °F66.2 °F100 %29.98 in7.0 miCalmPartly Cloudy
7:56 PM64.4 °F64.4 °F100 %29.99 in7.0 miCalmPartly Cloudy
8:43 PM62.6 °F62.6 °F100 %30.02 in7.0 miCalmClear
9:42 PM62.6 °F62.6 °F100 %29.99 in7.0 miSE (130°)3.5 mphClear
10:41 PM60.8 °F60.8 °F100 %29.98 in7.0 miCalmClear
11:49 PM60.8 °F60.8 °F100 %29.96 in7.0 miCalmClear
Hourly data recorded from MMCZ, located miles away from Cozumel, Quintana Roo







STORIES FROM OUR PARTNERS